Time,TemperatureF,DewpointF,PressureIn,WindDirection,WindDirectionDegrees,WindSpeedMPH,WindSpeedGustMPH,Humidity,HourlyPrecipIn,Conditions,Clouds,dailyrainin,SoftwareType,DateUTC
2013-02-25 00:00:00,19.0,15.8,30.15,South,178,0.0,0.0,87,0.00,,---,0.03,VWS V14.01,2013-02-25 06:00:00,
2013-02-25 00:05:00,19.0,16.0,30.14,South,178,0.0,0.0,88,0.00,,---,0.00,VWS V14.01,2013-02-25 06:05:00,
2013-02-25 00:10:00,18.9,15.9,30.14,South,178,0.0,0.0,88,0.00,,---,0.00,VWS V14.01,2013-02-25 06:10:00,
2013-02-25 00:15:00,18.7,15.5,30.15,South,178,0.0,0.0,87,0.00,,---,0.00,VWS V14.01,2013-02-25 06:15:00,
2013-02-25 00:20:00,18.5,15.3,30.15,South,178,0.0,0.0,87,0.00,,---,0.00,VWS V14.01,2013-02-25 06:20:00,
2013-02-25 00:25:00,18.4,15.2,30.15,South,182,0.0,0.0,87,0.00,,---,0.00,VWS V14.01,2013-02-25 06:25:00,
2013-02-25 00:30:00,18.0,14.8,30.15,South,182,0.0,0.0,87,0.00,,---,0.00,VWS V14.01,2013-02-25 06:30:00,
2013-02-25 00:35:00,17.6,14.4,30.15,South,182,0.0,0.0,87,0.00,,---,0.00,VWS V14.01,2013-02-25 06:35:00,
2013-02-25 00:40:00,17.5,14.6,30.15,South,182,0.0,0.0,88,0.00,,---,0.00,VWS V14.01,2013-02-25 06:40:00,
2013-02-25 00:45:00,17.6,14.7,30.15,South,182,0.0,0.0,88,0.00,,---,0.00,VWS V14.01,2013-02-25 06:45:00,
2013-02-25 00:50:00,17.6,14.7,30.15,South,182,0.0,0.0,88,0.00,,---,0.00,VWS V14.01,2013-02-25 06:50:00,
2013-02-25 00:55:00,17.5,14.6,30.15,South,182,0.0,0.0,88,0.00,,---,0.00,VWS V14.01,2013-02-25 06:55:00,
2013-02-25 01:00:00,17.5,14.8,30.15,South,182,0.0,0.0,89,0.00,,---,0.00,VWS V14.01,2013-02-25 07:00:00,
2013-02-25 01:05:00,17.5,14.8,30.14,South,182,0.0,0.0,89,0.00,,---,0.00,VWS V14.01,2013-02-25 07:05:00,
2013-02-25 01:10:00,17.3,14.6,30.14,South,182,0.0,0.0,89,0.00,,---,0.00,VWS V14.01,2013-02-25 07:10:00,
2013-02-25 01:15:00,17.2,14.5,30.14,South,182,0.0,0.0,89,0.00,,---,0.00,VWS V14.01,2013-02-25 07:15:00,
2013-02-25 01:20:00,17.2,14.5,30.15,South,182,0.0,0.0,89,0.00,,---,0.00,VWS V14.01,2013-02-25 07:20:00,
2013-02-25 01:25:00,17.1,14.4,30.15,South,182,0.0,0.0,89,0.00,,---,0.00,VWS V14.01,2013-02-25 07:25:00,
2013-02-25 01:30:00,17.0,14.3,30.15,South,182,0.0,1.0,89,0.00,,---,0.00,VWS V14.01,2013-02-25 07:30:00,
2013-02-25 01:35:00,16.8,14.1,30.15,South,182,0.0,0.0,89,0.00,,---,0.00,VWS V14.01,2013-02-25 07:35:00,
2013-02-25 01:40:00,16.6,13.7,30.15,South,182,0.0,0.0,88,0.00,,---,0.00,VWS V14.01,2013-02-25 07:40:00,
2013-02-25 01:45:00,16.1,12.9,30.15,South,182,0.0,0.0,87,0.00,,---,0.00,VWS V14.01,2013-02-25 07:45:00,
2013-02-25 01:50:00,16.1,13.4,30.15,South,182,0.0,0.0,89,0.00,,---,0.00,VWS V14.01,2013-02-25 07:50:00,
2013-02-25 01:55:00,16.3,13.6,30.15,South,182,0.0,0.0,89,0.00,,---,0.00,VWS V14.01,2013-02-25 07:55:00,
2013-02-25 02:00:00,16.6,14.2,30.16,South,182,0.0,0.0,90,0.00,,---,0.00,VWS V14.01,2013-02-25 08:00:00,
2013-02-25 02:05:00,16.8,14.4,30.15,South,182,0.0,0.0,90,0.00,,---,0.00,VWS V14.01,2013-02-25 08:05:00,
2013-02-25 02:10:00,17.0,14.6,30.15,South,182,0.0,0.0,90,0.00,,---,0.00,VWS V14.01,2013-02-25 08:10:00,
2013-02-25 02:15:00,17.1,14.7,30.15,South,182,0.0,0.0,90,0.00,,---,0.00,VWS V14.01,2013-02-25 08:15:00,
2013-02-25 02:20:00,17.3,14.9,30.15,South,182,0.0,0.0,90,0.00,,---,0.00,VWS V14.01,2013-02-25 08:20:00,
2013-02-25 02:25:00,17.3,14.9,30.15,South,182,0.0,0.0,90,0.00,,---,0.00,VWS V14.01,2013-02-25 08:25:00,
2013-02-25 02:30:00,17.2,14.5,30.15,South,182,0.0,0.0,89,0.00,,---,0.00,VWS V14.01,2013-02-25 08:30:00,
2013-02-25 02:35:00,17.2,14.5,30.15,South,182,0.0,0.0,89,0.00,,---,0.00,VWS V14.01,2013-02-25 08:35:00,
2013-02-25 02:40:00,17.3,14.6,30.14,South,182,0.0,0.0,89,0.00,,---,0.00,VWS V14.01,2013-02-25 08:40:00,
2013-02-25 02:45:00,17.4,15.0,30.14,South,182,0.0,0.0,90,0.00,,---,0.00,VWS V14.01,2013-02-25 08:45:00,
2013-02-25 02:50:00,17.6,15.2,30.14,South,182,0.0,0.0,90,0.00,,---,0.00,VWS V14.01,2013-02-25 08:50:00,
2013-02-25 02:55:00,17.6,15.2,30.13,South,182,0.0,0.0,90,0.00,,---,0.00,VWS V14.01,2013-02-25 08:55:00,
2013-02-25 03:00:00,17.6,15.2,30.13,South,182,0.0,0.0,90,0.00,,---,0.00,VWS V14.01,2013-02-25 09:00:00,
2013-02-25 03:05:00,17.5,14.8,30.14,South,182,0.0,0.0,89,0.00,,---,0.00,VWS V14.01,2013-02-25 09:05:00,
2013-02-25 03:10:00,17.3,14.6,30.14,South,182,0.0,0.0,89,0.00,,---,0.00,VWS V14.01,2013-02-25 09:10:00,
2013-02-25 03:15:00,17.3,14.6,30.14,South,182,0.0,0.0,89,0.00,,---,0.00,VWS V14.01,2013-02-25 09:15:00,
2013-02-25 03:20:00,17.5,15.1,30.14,South,182,0.0,0.0,90,0.00,,---,0.00,VWS V14.01,2013-02-25 09:20:00,
2013-02-25 03:25:00,17.6,15.2,30.13,South,182,0.0,0.0,90,0.00,,---,0.00,VWS V14.01,2013-02-25 09:25:00,
2013-02-25 03:30:00,17.5,14.8,30.14,South,182,0.0,0.0,89,0.00,,---,0.00,VWS V14.01,2013-02-25 09:30:00,
2013-02-25 03:35:00,17.2,14.5,30.14,South,182,0.0,0.0,89,0.00,,---,0.00,VWS V14.01,2013-02-25 09:35:00,
2013-02-25 03:40:00,17.2,14.5,30.14,South,182,0.0,0.0,89,0.00,,---,0.00,VWS V14.01,2013-02-25 09:40:00,
2013-02-25 03:45:00,17.0,14.3,30.13,South,182,0.0,0.0,89,0.00,,---,0.00,VWS V14.01,2013-02-25 09:45:00,
2013-02-25 03:50:00,16.6,13.7,30.13,South,182,0.0,0.0,88,0.00,,---,0.00,VWS V14.01,2013-02-25 09:50:00,
2013-02-25 03:55:00,16.3,13.4,30.13,South,182,0.0,0.0,88,0.00,,---,0.00,VWS V14.01,2013-02-25 09:55:00,
2013-02-25 04:00:00,16.1,13.4,30.13,South,182,0.0,0.0,89,0.00,,---,0.00,VWS V14.01,2013-02-25 10:00:00,
2013-02-25 04:05:00,15.9,13.0,30.13,South,182,0.0,0.0,88,0.00,,---,0.00,VWS V14.01,2013-02-25 10:05:00,
2013-02-25 04:10:00,15.6,12.7,30.13,South,182,0.0,0.0,88,0.00,,---,0.00,VWS V14.01,2013-02-25 10:10:00,
2013-02-25 04:15:00,15.2,12.3,30.13,South,182,0.0,0.0,88,0.00,,---,0.00,VWS V14.01,2013-02-25 10:15:00,
2013-02-25 04:20:00,14.9,12.2,30.13,South,182,0.0,0.0,89,0.00,,---,0.00,VWS V14.01,2013-02-25 10:20:00,
2013-02-25 04:25:00,14.7,12.1,30.13,South,182,0.0,0.0,89,0.00,,---,0.00,VWS V14.01,2013-02-25 10:25:00,
2013-02-25 04:30:00,14.5,11.9,30.13,South,182,0.0,0.0,89,0.00,,---,0.00,VWS V14.01,2013-02-25 10:30:00,
2013-02-25 04:35:00,14.2,11.6,30.14,South,182,0.0,0.0,89,0.00,,---,0.00,VWS V14.01,2013-02-25 10:35:00,
2013-02-25 04:40:00,13.9,11.3,30.14,South,182,0.0,0.0,89,0.00,,---,0.00,VWS V14.01,2013-02-25 10:40:00,
2013-02-25 04:45:00,13.6,11.0,30.14,South,182,0.0,0.0,89,0.00,,---,0.00,VWS V14.01,2013-02-25 10:45:00,
2013-02-25 04:50:00,13.4,10.8,30.14,South,182,0.0,0.0,89,0.00,,---,0.00,VWS V14.01,2013-02-25 10:50:00,
2013-02-25 04:55:00,13.3,10.7,30.14,South,182,0.0,0.0,89,0.00,,---,0.00,VWS V14.01,2013-02-25 10:55:00,
2013-02-25 05:00:00,13.1,10.5,30.14,South,182,0.0,0.0,89,0.00,,---,0.00,VWS V14.01,2013-02-25 11:00:00,
2013-02-25 05:05:00,12.8,10.2,30.14,South,182,0.0,0.0,89,0.00,,---,0.00,VWS V14.01,2013-02-25 11:05:00,
2013-02-25 05:10:00,12.5,9.9,30.15,South,182,0.0,0.0,89,0.00,,---,0.00,VWS V14.01,2013-02-25 11:10:00,
2013-02-25 05:15:00,12.3,9.7,30.15,South,182,0.0,0.0,89,0.00,,---,0.00,VWS V14.01,2013-02-25 11:15:00,
2013-02-25 05:20:00,12.1,9.5,30.15,South,182,0.0,0.0,89,0.00,,---,0.00,VWS V14.01,2013-02-25 11:20:00,
2013-02-25 05:25:00,11.9,9.3,30.15,South,182,0.0,0.0,89,0.00,,---,0.00,VWS V14.01,2013-02-25 11:25:00,
2013-02-25 05:30:00,11.6,8.7,30.15,South,182,0.0,0.0,88,0.00,,---,0.00,VWS V14.01,2013-02-25 11:30:00,
2013-02-25 05:35:00,11.3,8.4,30.16,South,182,0.0,0.0,88,0.00,,---,0.00,VWS V14.01,2013-02-25 11:35:00,
2013-02-25 05:40:00,11.3,8.7,30.16,South,182,0.0,0.0,89,0.00,,---,0.00,VWS V14.01,2013-02-25 11:40:00,
2013-02-25 05:45:00,11.2,8.6,30.15,South,182,0.0,0.0,89,0.00,,---,0.00,VWS V14.01,2013-02-25 11:45:00,
2013-02-25 05:50:00,11.3,8.7,30.15,South,182,0.0,0.0,89,0.00,,---,0.00,VWS V14.01,2013-02-25 11:50:00,
2013-02-25 05:55:00,11.4,8.8,30.16,South,182,0.0,0.0,89,0.00,,---,0.00,VWS V14.01,2013-02-25 11:55:00,
2013-02-25 06:00:00,11.4,8.8,30.16,South,182,0.0,0.0,89,0.00,,---,0.00,VWS V14.01,2013-02-25 12:00:00,
2013-02-25 06:05:00,11.4,9.0,30.16,South,182,0.0,0.0,90,0.00,,---,0.00,VWS V14.01,2013-02-25 12:05:00,
2013-02-25 06:10:00,11.3,8.9,30.16,South,182,0.0,0.0,90,0.00,,---,0.00,VWS V14.01,2013-02-25 12:10:00,
2013-02-25 06:15:00,11.2,8.6,30.16,South,182,0.0,0.0,89,0.00,,---,0.00,VWS V14.01,2013-02-25 12:15:00,
2013-02-25 06:20:00,11.0,8.4,30.16,South,182,0.0,0.0,89,0.00,,---,0.00,VWS V14.01,2013-02-25 12:20:00,
2013-02-25 06:25:00,10.8,8.2,30.17,South,182,0.0,0.0,89,0.00,,---,0.00,VWS V14.01,2013-02-25 12:25:00,
2013-02-25 06:30:00,10.6,8.0,30.17,South,182,0.0,0.0,89,0.00,,---,0.00,VWS V14.01,2013-02-25 12:30:00,
2013-02-25 06:35:00,10.4,7.8,30.17,South,182,0.0,0.0,89,0.00,,---,0.00,VWS V14.01,2013-02-25 12:35:00,
2013-02-25 06:40:00,10.3,7.7,30.17,South,182,0.0,0.0,89,0.00,,---,0.00,VWS V14.01,2013-02-25 12:40:00,
2013-02-25 06:45:00,10.3,7.7,30.17,South,182,0.0,0.0,89,0.00,,---,0.00,VWS V14.01,2013-02-25 12:45:00,
2013-02-25 06:50:00,10.5,7.9,30.16,South,182,0.0,0.0,89,0.00,,---,0.00,VWS V14.01,2013-02-25 12:50:00,
2013-02-25 06:55:00,10.6,8.0,30.16,South,182,0.0,0.0,89,0.00,,---,0.00,VWS V14.01,2013-02-25 12:55:00,
2013-02-25 07:00:00,10.3,7.7,30.16,South,182,0.0,0.0,89,0.00,,---,0.00,VWS V14.01,2013-02-25 13:00:00,
2013-02-25 07:05:00,10.3,7.7,30.17,South,182,0.0,0.0,89,0.00,,---,0.00,VWS V14.01,2013-02-25 13:05:00,
2013-02-25 07:11:00,10.4,7.8,30.17,South,182,0.0,0.0,89,0.00,,---,0.00,VWS V14.01,2013-02-25 13:11:00,
2013-02-25 07:16:00,10.3,7.7,30.17,South,182,0.0,0.0,89,0.00,,---,0.00,VWS V14.01,2013-02-25 13:16:00,
2013-02-25 07:21:00,10.3,7.7,30.17,South,182,0.0,0.0,89,0.00,,---,0.00,VWS V14.01,2013-02-25 13:21:00,
2013-02-25 07:26:00,10.2,7.4,30.17,South,182,0.0,0.0,88,0.00,,---,0.00,VWS V14.01,2013-02-25 13:26:00,
2013-02-25 07:30:00,9.5,6.4,30.17,South,182,0.0,0.0,87,0.00,,---,0.00,VWS V14.01,2013-02-25 13:30:00,
2013-02-25 07:31:00,9.6,6.5,30.17,South,182,0.0,0.0,87,0.00,,---,0.00,VWS V14.01,2013-02-25 13:31:00,
2013-02-25 07:36:00,9.5,6.7,30.17,South,182,0.0,0.0,88,0.00,,---,0.00,VWS V14.01,2013-02-25 13:36:00,
2013-02-25 07:41:00,9.9,7.3,30.17,South,182,0.0,0.0,89,0.00,,---,0.00,VWS V14.01,2013-02-25 13:41:00,
2013-02-25 07:46:00,10.4,8.1,30.18,South,182,0.0,0.0,90,0.00,,---,0.00,VWS V14.01,2013-02-25 13:46:00,
2013-02-25 07:51:00,10.8,8.4,30.18,South,182,0.0,0.0,90,0.00,,---,0.00,VWS V14.01,2013-02-25 13:51:00,
2013-02-25 07:56:00,11.1,8.8,30.18,South,182,0.0,0.0,90,0.00,,---,0.00,VWS V14.01,2013-02-25 13:56:00,
2013-02-25 08:00:00,11.4,9.0,30.18,South,173,0.0,0.0,90,0.00,,---,0.00,VWS V14.01,2013-02-25 14:00:00,
2013-02-25 08:01:00,11.3,8.9,30.18,South,173,0.0,0.0,90,0.00,,---,0.00,VWS V14.01,2013-02-25 14:01:00,
2013-02-25 08:06:00,11.6,9.2,30.18,South,173,0.0,0.0,90,0.00,,---,0.00,VWS V14.01,2013-02-25 14:06:00,
2013-02-25 08:11:00,12.0,9.6,30.18,South,173,0.0,0.0,90,0.00,,---,0.00,VWS V14.01,2013-02-25 14:11:00,
2013-02-25 08:16:00,12.6,10.5,30.18,SW,220,0.0,1.0,91,0.00,,---,0.00,VWS V14.01,2013-02-25 14:16:00,
2013-02-25 08:21:00,13.2,11.1,30.18,SW,220,0.0,1.0,91,0.00,,---,0.00,VWS V14.01,2013-02-25 14:21:00,
2013-02-25 08:26:00,13.6,11.5,30.18,SW,220,0.0,1.0,91,0.00,,---,0.00,VWS V14.01,2013-02-25 14:26:00,
2013-02-25 08:30:00,13.9,11.5,30.18,SW,219,0.0,1.0,90,0.00,,---,0.00,VWS V14.01,2013-02-25 14:30:00,
2013-02-25 08:31:00,13.8,11.4,30.18,SW,220,0.0,1.0,90,0.00,,---,0.00,VWS V14.01,2013-02-25 14:31:00,
2013-02-25 08:36:00,14.1,11.7,30.18,West,259,1.0,3.0,90,0.00,,---,0.00,VWS V14.01,2013-02-25 14:36:00,
2013-02-25 08:41:00,14.6,12.2,30.18,West,259,0.0,3.0,90,0.00,,---,0.00,VWS V14.01,2013-02-25 14:41:00,
2013-02-25 08:46:00,15.4,13.2,30.18,West,259,0.0,3.0,91,0.00,,---,0.00,VWS V14.01,2013-02-25 14:46:00,
2013-02-25 08:51:00,16.2,13.8,30.18,SSW,203,0.0,3.0,90,0.00,,---,0.00,VWS V14.01,2013-02-25 14:51:00,
2013-02-25 08:56:00,16.7,14.0,30.17,SSE,148,0.0,3.0,89,0.00,,---,0.00,VWS V14.01,2013-02-25 14:56:00,
2013-02-25 09:00:00,17.2,14.3,30.17,WSW,257,0.0,5.0,88,0.00,,---,0.00,VWS V14.01,2013-02-25 15:00:00,
2013-02-25 09:01:00,17.1,14.4,30.17,WSW,257,1.0,5.0,89,0.00,,---,0.00,VWS V14.01,2013-02-25 15:01:00,
2013-02-25 09:06:00,17.4,14.5,30.17,WSW,257,2.0,4.0,88,0.00,,---,0.00,VWS V14.01,2013-02-25 15:06:00,
2013-02-25 09:11:00,17.3,14.1,30.17,West,264,1.0,4.0,87,0.00,,---,0.00,VWS V14.01,2013-02-25 15:11:00,
2013-02-25 09:16:00,17.6,14.4,30.17,SSW,192,0.0,4.0,87,0.00,,---,0.00,VWS V14.01,2013-02-25 15:16:00,
2013-02-25 09:21:00,18.1,14.9,30.18,WSW,252,4.0,4.0,87,0.00,,---,0.00,VWS V14.01,2013-02-25 15:21:00,
2013-02-25 09:26:00,18.5,15.0,30.18,WSW,252,3.0,4.0,86,0.00,,---,0.00,VWS V14.01,2013-02-25 15:26:00,
2013-02-25 09:30:00,19.0,15.2,30.18,South,186,0.0,4.0,85,0.00,,---,0.00,VWS V14.01,2013-02-25 15:30:00,
2013-02-25 09:31:00,18.8,15.1,30.17,SW,229,0.0,4.0,85,0.00,,---,0.00,VWS V14.01,2013-02-25 15:31:00,
2013-02-25 09:36:00,19.1,15.1,30.17,WSW,254,2.0,5.0,84,0.00,,---,0.00,VWS V14.01,2013-02-25 15:36:00,
2013-02-25 09:41:00,19.4,15.1,30.18,West,259,0.0,6.0,83,0.00,,---,0.00,VWS V14.01,2013-02-25 15:41:00,
2013-02-25 09:46:00,19.7,15.4,30.17,WSW,250,2.0,6.0,83,0.00,,---,0.00,VWS V14.01,2013-02-25 15:46:00,
2013-02-25 09:51:00,20.0,15.7,30.17,West,263,2.0,6.0,83,0.00,,---,0.00,VWS V14.01,2013-02-25 15:51:00,
2013-02-25 09:56:00,20.4,15.8,30.18,WSW,251,0.0,6.0,82,0.00,,---,0.00,VWS V14.01,2013-02-25 15:56:00,
2013-02-25 10:00:00,20.7,15.8,30.17,West,265,0.0,6.0,81,0.00,,---,0.00,VWS V14.01,2013-02-25 16:00:00,
2013-02-25 10:01:00,20.6,15.7,30.17,West,265,0.0,6.0,81,0.00,,---,0.00,VWS V14.01,2013-02-25 16:01:00,
2013-02-25 10:06:00,20.8,15.6,30.17,WSW,250,6.0,6.0,80,0.00,,---,0.00,VWS V14.01,2013-02-25 16:06:00,
2013-02-25 10:11:00,21.2,16.0,30.17,WSW,256,4.0,6.0,80,0.00,,---,0.00,VWS V14.01,2013-02-25 16:11:00,
2013-02-25 10:16:00,21.5,16.0,30.17,WNW,283,4.0,6.0,79,0.00,,---,0.00,VWS V14.01,2013-02-25 16:16:00,
2013-02-25 10:21:00,21.9,16.4,30.17,SSW,213,0.0,6.0,79,0.00,,---,0.00,VWS V14.01,2013-02-25 16:21:00,
2013-02-25 10:26:00,22.4,16.6,30.17,WSW,238,1.0,6.0,78,0.00,,---,0.00,VWS V14.01,2013-02-25 16:26:00,
2013-02-25 10:30:00,22.5,16.4,30.16,West,259,2.0,7.0,77,0.00,,---,0.00,VWS V14.01,2013-02-25 16:30:00,
2013-02-25 10:31:00,22.5,16.4,30.16,WSW,253,5.0,7.0,77,0.00,,---,0.00,VWS V14.01,2013-02-25 16:31:00,
2013-02-25 10:36:00,22.6,16.5,30.16,West,263,5.0,7.0,77,0.00,,---,0.00,VWS V14.01,2013-02-25 16:36:00,
2013-02-25 10:41:00,22.8,16.7,30.17,WSW,248,1.0,9.0,77,0.00,,---,0.00,VWS V14.01,2013-02-25 16:41:00,
2013-02-25 10:46:00,23.1,17.0,30.16,WNW,283,1.0,9.0,77,0.00,,---,0.00,VWS V14.01,2013-02-25 16:46:00,
2013-02-25 10:51:00,23.8,17.7,30.16,WSW,248,2.0,9.0,77,0.00,,---,0.00,VWS V14.01,2013-02-25 16:51:00,
2013-02-25 10:56:00,24.2,17.7,30.16,SW,234,3.0,9.0,76,0.00,,---,0.00,VWS V14.01,2013-02-25 16:56:00,
2013-02-25 11:00:00,24.6,18.1,30.16,WSW,253,1.0,9.0,76,0.00,,---,0.00,VWS V14.01,2013-02-25 17:00:00,
2013-02-25 11:01:00,24.5,18.0,30.16,WSW,253,5.0,9.0,76,0.00,,---,0.00,VWS V14.01,2013-02-25 17:01:00,
2013-02-25 11:06:00,24.8,18.3,30.16,West,272,1.0,7.0,76,0.00,,---,0.00,VWS V14.01,2013-02-25 17:06:00,
2013-02-25 11:11:00,25.1,18.6,30.16,WNW,298,2.0,7.0,76,0.00,,---,0.00,VWS V14.01,2013-02-25 17:11:00,
2013-02-25 11:16:00,25.5,18.7,30.16,South,180,1.0,7.0,75,0.00,,---,0.00,VWS V14.01,2013-02-25 17:16:00,
2013-02-25 11:21:00,26.1,19.0,30.16,West,263,5.0,7.0,74,0.00,,---,0.00,VWS V14.01,2013-02-25 17:21:00,
2013-02-25 11:26:00,26.3,19.5,30.16,WSW,251,2.0,8.0,75,0.00,,---,0.00,VWS V14.01,2013-02-25 17:26:00,
2013-02-25 11:30:00,26.6,19.1,30.15,WSW,258,5.0,8.0,73,0.00,,---,0.00,VWS V14.01,2013-02-25 17:30:00,
2013-02-25 11:31:00,26.5,19.4,30.15,West,265,3.0,8.0,74,0.00,,---,0.00,VWS V14.01,2013-02-25 17:31:00,
2013-02-25 11:36:00,26.5,19.0,30.15,West,259,0.0,8.0,73,0.00,,---,0.00,VWS V14.01,2013-02-25 17:36:00,
2013-02-25 11:41:00,26.5,19.7,30.15,WSW,238,2.0,8.0,75,0.00,,---,0.00,VWS V14.01,2013-02-25 17:41:00,
2013-02-25 11:46:00,26.9,19.1,30.15,West,261,4.0,8.0,72,0.00,,---,0.00,VWS V14.01,2013-02-25 17:46:00,
2013-02-25 11:51:00,27.0,19.5,30.15,WSW,254,0.0,8.0,73,0.00,,---,0.00,VWS V14.01,2013-02-25 17:51:00,
2013-02-25 11:56:00,27.1,19.6,30.15,West,261,2.0,8.0,73,0.00,,---,0.00,VWS V14.01,2013-02-25 17:56:00,
2013-02-25 12:00:00,27.4,19.6,30.15,WSW,249,0.0,8.0,72,0.00,,---,0.00,VWS V14.01,2013-02-25 18:00:00,
2013-02-25 12:01:00,27.3,19.8,30.15,West,259,0.0,8.0,73,0.00,,---,0.00,VWS V14.01,2013-02-25 18:01:00,
2013-02-25 12:06:00,27.6,19.8,30.15,WSW,255,1.0,6.0,72,0.00,,---,0.00,VWS V14.01,2013-02-25 18:06:00,
2013-02-25 12:11:00,27.6,20.1,30.15,South,169,0.0,6.0,73,0.00,,---,0.00,VWS V14.01,2013-02-25 18:11:00,
2013-02-25 12:16:00,27.9,20.1,30.15,WSW,252,4.0,6.0,72,0.00,,---,0.00,VWS V14.01,2013-02-25 18:16:00,
2013-02-25 12:21:00,28.1,20.2,30.15,WSW,258,2.0,6.0,72,0.00,,---,0.00,VWS V14.01,2013-02-25 18:21:00,
2013-02-25 12:26:00,28.5,20.6,30.15,SSE,153,0.0,6.0,72,0.00,,---,0.00,VWS V14.01,2013-02-25 18:26:00,
2013-02-25 12:30:00,29.3,20.8,30.15,SSW,194,0.0,6.0,70,0.00,,---,0.00,VWS V14.01,2013-02-25 18:30:00,
2013-02-25 12:31:00,29.2,21.3,30.15,WSW,238,1.0,6.0,72,0.00,,---,0.00,VWS V14.01,2013-02-25 18:31:00,
2013-02-25 12:36:00,29.5,20.9,30.14,SW,217,0.0,2.0,70,0.00,,---,0.00,VWS V14.01,2013-02-25 18:36:00,
2013-02-25 12:41:00,30.0,21.4,30.14,WSW,238,0.0,2.0,70,0.00,,---,0.00,VWS V14.01,2013-02-25 18:41:00,
2013-02-25 12:46:00,30.2,21.3,30.14,West,261,0.0,5.0,69,0.00,,---,0.00,VWS V14.01,2013-02-25 18:46:00,
2013-02-25 12:51:00,30.1,21.2,30.14,West,263,0.0,5.0,69,0.00,,---,0.00,VWS V14.01,2013-02-25 18:51:00,
2013-02-25 12:56:00,30.4,21.8,30.14,South,183,0.0,5.0,70,0.00,,---,0.00,VWS V14.01,2013-02-25 18:56:00,
2013-02-25 13:00:00,31.4,22.4,30.14,WSW,256,6.0,6.0,69,0.00,,---,0.00,VWS V14.01,2013-02-25 19:00:00,
2013-02-25 13:01:00,31.3,22.7,30.14,WSW,250,0.0,5.0,70,0.00,,---,0.00,VWS V14.01,2013-02-25 19:01:00,
2013-02-25 13:06:00,31.1,22.1,30.14,WSW,244,1.0,6.0,69,0.00,,---,0.00,VWS V14.01,2013-02-25 19:06:00,
2013-02-25 13:11:00,31.2,22.6,30.13,WSW,241,2.0,8.0,70,0.00,,---,0.00,VWS V14.01,2013-02-25 19:11:00,
2013-02-25 13:16:00,31.4,23.4,30.13,West,262,1.0,8.0,72,0.01,,---,0.01,VWS V14.01,2013-02-25 19:16:00,
2013-02-25 13:21:00,31.4,23.4,30.13,West,259,4.0,8.0,72,0.01,,---,0.01,VWS V14.01,2013-02-25 19:21:00,
2013-02-25 13:26:00,31.6,23.6,30.13,West,259,1.0,8.0,72,0.01,,---,0.01,VWS V14.01,2013-02-25 19:26:00,
2013-02-25 13:30:00,32.2,23.2,30.13,SW,234,2.0,8.0,69,0.01,,---,0.01,VWS V14.01,2013-02-25 19:30:00,
2013-02-25 13:31:00,32.2,23.5,30.13,West,265,3.0,8.0,70,0.01,,---,0.01,VWS V14.01,2013-02-25 19:31:00,
2013-02-25 13:36:00,32.1,23.1,30.13,SW,220,0.0,4.0,69,0.01,,---,0.01,VWS V14.01,2013-02-25 19:36:00,
2013-02-25 13:41:00,32.3,23.6,30.13,South,184,1.0,5.0,70,0.01,,---,0.01,VWS V14.01,2013-02-25 19:41:00,
2013-02-25 13:46:00,32.7,23.7,30.12,WSW,244,2.0,7.0,69,0.01,,---,0.01,VWS V14.01,2013-02-25 19:46:00,
2013-02-25 13:51:00,32.9,23.9,30.12,WSW,238,1.0,7.0,69,0.01,,---,0.01,VWS V14.01,2013-02-25 19:51:00,
2013-02-25 13:56:00,32.9,23.2,30.12,West,264,2.0,8.0,67,0.01,,---,0.01,VWS V14.01,2013-02-25 19:56:00,
2013-02-25 14:00:00,32.4,23.0,30.12,WSW,257,1.0,8.0,68,0.01,,---,0.01,VWS V14.01,2013-02-25 20:00:00,
2013-02-25 14:01:00,32.4,23.4,30.12,WSW,249,0.0,8.0,69,0.01,,---,0.01,VWS V14.01,2013-02-25 20:01:00,
2013-02-25 14:06:00,32.5,23.1,30.12,WNW,294,4.0,6.0,68,0.01,,---,0.01,VWS V14.01,2013-02-25 20:06:00,
2013-02-25 14:11:00,32.9,23.5,30.11,West,263,2.0,6.0,68,0.01,,---,0.01,VWS V14.01,2013-02-25 20:11:00,
2013-02-25 14:16:00,33.0,23.2,30.11,West,260,0.0,7.0,67,0.01,,---,0.01,VWS V14.01,2013-02-25 20:16:00,
2013-02-25 14:21:00,33.2,23.8,30.11,WSW,250,0.0,7.0,68,0.01,,---,0.01,VWS V14.01,2013-02-25 20:21:00,
2013-02-25 14:26:00,33.6,24.9,30.11,WSW,254,0.0,7.0,70,0.01,,---,0.01,VWS V14.01,2013-02-25 20:26:00,
2013-02-25 14:30:00,33.4,24.3,30.11,WSW,251,0.0,7.0,69,0.02,,---,0.02,VWS V14.01,2013-02-25 20:30:00,
2013-02-25 14:31:00,33.6,24.2,30.11,WSW,255,0.0,7.0,68,0.02,,---,0.02,VWS V14.01,2013-02-25 20:31:00,
2013-02-25 14:36:00,33.4,24.0,30.11,West,281,2.0,7.0,68,0.01,,---,0.02,VWS V14.01,2013-02-25 20:36:00,
2013-02-25 14:41:00,33.1,24.0,30.11,WSW,248,2.0,7.0,69,0.01,,---,0.02,VWS V14.01,2013-02-25 20:41:00,
2013-02-25 14:46:00,32.8,23.8,30.11,WSW,253,0.0,7.0,69,0.01,,---,0.02,VWS V14.01,2013-02-25 20:46:00,
2013-02-25 14:51:00,33.3,25.3,30.11,West,264,0.0,7.0,72,0.01,,---,0.02,VWS V14.01,2013-02-25 20:51:00,
2013-02-25 14:56:00,33.9,24.8,30.11,WSW,247,1.0,7.0,69,0.01,,---,0.02,VWS V14.01,2013-02-25 20:56:00,
2013-02-25 15:00:00,33.6,24.5,30.11,WSW,253,4.0,7.0,69,0.01,,---,0.02,VWS V14.01,2013-02-25 21:00:00,
2013-02-25 15:01:00,33.7,24.3,30.11,WSW,252,2.0,7.0,68,0.01,,---,0.02,VWS V14.01,2013-02-25 21:01:00,
2013-02-25 15:06:00,33.7,24.3,30.11,West,265,5.0,5.0,68,0.01,,---,0.02,VWS V14.01,2013-02-25 21:06:00,
2013-02-25 15:11:00,33.7,24.6,30.11,WSW,253,4.0,6.0,69,0.01,,---,0.02,VWS V14.01,2013-02-25 21:11:00,
2013-02-25 15:16:00,33.5,24.4,30.11,WSW,252,0.0,6.0,69,0.01,,---,0.02,VWS V14.01,2013-02-25 21:16:00,
2013-02-25 15:21:00,33.6,24.5,30.11,SSE,158,1.0,11.0,69,0.01,,---,0.02,VWS V14.01,2013-02-25 21:21:00,
2013-02-25 15:26:00,34.0,24.6,30.11,WSW,249,0.0,11.0,68,0.01,,---,0.02,VWS V14.01,2013-02-25 21:26:00,
2013-02-25 15:30:00,34.3,24.5,30.10,WSW,248,0.0,11.0,67,0.01,,---,0.02,VWS V14.01,2013-02-25 21:30:00,
2013-02-25 15:31:00,34.4,25.0,30.11,West,259,4.0,11.0,68,0.01,,---,0.02,VWS V14.01,2013-02-25 21:31:00,
2013-02-25 15:36:00,34.4,24.6,30.10,SW,232,0.0,4.0,67,0.00,,---,0.02,VWS V14.01,2013-02-25 21:36:00,
2013-02-25 15:41:00,34.4,24.6,30.10,WSW,249,0.0,6.0,67,0.00,,---,0.02,VWS V14.01,2013-02-25 21:41:00,
2013-02-25 15:46:00,34.4,24.6,30.10,WSW,257,2.0,6.0,67,0.01,,---,0.03,VWS V14.01,2013-02-25 21:46:00,
2013-02-25 15:51:00,34.2,24.4,30.10,West,260,2.0,6.0,67,0.01,,---,0.03,VWS V14.01,2013-02-25 21:51:00,
2013-02-25 15:56:00,34.0,24.6,30.10,West,264,2.0,6.0,68,0.01,,---,0.03,VWS V14.01,2013-02-25 21:56:00,
2013-02-25 16:00:00,34.1,25.0,30.10,WSW,257,1.0,6.0,69,0.01,,---,0.03,VWS V14.01,2013-02-25 22:00:00,
2013-02-25 16:01:00,34.0,24.2,30.10,WSW,252,0.0,6.0,67,0.01,,---,0.03,VWS V14.01,2013-02-25 22:01:00,
2013-02-25 16:06:00,34.3,24.9,30.11,West,261,0.0,3.0,68,0.01,,---,0.03,VWS V14.01,2013-02-25 22:06:00,
2013-02-25 16:11:00,34.3,25.2,30.11,West,268,1.0,3.0,69,0.01,,---,0.03,VWS V14.01,2013-02-25 22:11:00,
2013-02-25 16:16:00,34.1,24.7,30.11,WSW,257,1.0,3.0,68,0.01,,---,0.03,VWS V14.01,2013-02-25 22:16:00,
2013-02-25 16:21:00,33.6,24.5,30.11,WSW,251,0.0,5.0,69,0.01,,---,0.03,VWS V14.01,2013-02-25 22:21:00,
2013-02-25 16:26:00,33.7,24.3,30.11,West,261,0.0,5.0,68,0.01,,---,0.03,VWS V14.01,2013-02-25 22:26:00,
2013-02-25 16:30:00,33.6,24.2,30.12,West,261,0.0,5.0,68,0.01,,---,0.03,VWS V14.01,2013-02-25 22:30:00,
2013-02-25 16:31:00,33.7,24.3,30.12,West,262,0.0,5.0,68,0.01,,---,0.03,VWS V14.01,2013-02-25 22:31:00,
2013-02-25 16:36:00,33.5,24.4,30.12,West,262,1.0,1.0,69,0.01,,---,0.03,VWS V14.01,2013-02-25 22:36:00,
2013-02-25 16:41:00,33.1,24.0,30.12,West,261,0.0,2.0,69,0.01,,---,0.03,VWS V14.01,2013-02-25 22:41:00,
2013-02-25 16:46:00,32.9,23.9,30.12,West,261,0.0,2.0,69,0.01,,---,0.03,VWS V14.01,2013-02-25 22:46:00,
2013-02-25 16:51:00,32.7,24.0,30.12,West,261,0.0,2.0,70,0.01,,---,0.03,VWS V14.01,2013-02-25 22:51:00,
2013-02-25 16:56:00,32.5,23.8,30.12,West,261,0.0,2.0,70,0.01,,---,0.03,VWS V14.01,2013-02-25 22:56:00,
2013-02-25 17:00:00,32.0,23.3,30.13,WSW,254,4.0,4.0,70,0.02,,---,0.04,VWS V14.01,2013-02-25 23:00:00,
2013-02-25 17:01:00,32.3,23.3,30.12,WSW,255,3.0,4.0,69,0.02,,---,0.04,VWS V14.01,2013-02-25 23:01:00,
2013-02-25 17:06:00,31.6,23.3,30.13,WSW,252,4.0,5.0,71,0.01,,---,0.04,VWS V14.01,2013-02-25 23:06:00,
2013-02-25 17:11:00,31.3,23.3,30.13,WSW,248,2.0,5.0,72,0.01,,---,0.04,VWS V14.01,2013-02-25 23:11:00,
2013-02-25 17:16:00,31.3,23.7,30.13,West,259,0.0,5.0,73,0.01,,---,0.04,VWS V14.01,2013-02-25 23:16:00,
2013-02-25 17:21:00,31.3,23.3,30.13,West,259,0.0,5.0,72,0.01,,---,0.04,VWS V14.01,2013-02-25 23:21:00,
2013-02-25 17:26:00,31.0,23.0,30.13,West,259,1.0,5.0,72,0.01,,---,0.04,VWS V14.01,2013-02-25 23:26:00,
2013-02-25 17:30:00,30.6,23.0,30.13,West,259,0.0,5.0,73,0.01,,---,0.04,VWS V14.01,2013-02-25 23:30:00,
2013-02-25 17:31:00,30.7,23.1,30.13,West,259,0.0,5.0,73,0.01,,---,0.04,VWS V14.01,2013-02-25 23:31:00,
2013-02-25 17:36:00,30.5,22.9,30.13,West,259,1.0,2.0,73,0.01,,---,0.04,VWS V14.01,2013-02-25 23:36:00,
2013-02-25 17:41:00,30.1,22.8,30.14,WSW,257,0.0,3.0,74,0.01,,---,0.04,VWS V14.01,2013-02-25 23:41:00,
2013-02-25 17:46:00,29.8,22.9,30.14,WSW,257,0.0,3.0,75,0.01,,---,0.04,VWS V14.01,2013-02-25 23:46:00,
2013-02-25 17:50:00,29.5,22.9,30.14,WSW,257,0.0,3.0,76,0.01,,---,0.04,VWS V14.01,2013-02-25 23:50:00,
2013-02-25 17:55:00,29.2,22.6,30.14,WSW,257,0.0,3.0,76,0.01,,---,0.04,VWS V14.01,2013-02-25 23:55:00,
2013-02-25 18:00:00,28.9,22.3,30.14,WSW,257,0.0,3.0,76,0.01,,---,0.04,VWS V14.01,2013-02-26 00:00:00,
2013-02-25 18:05:00,28.6,22.3,30.15,WSW,257,0.0,0.0,77,0.00,,---,0.04,VWS V14.01,2013-02-26 00:05:00,
2013-02-25 18:10:00,28.3,22.3,30.15,WSW,257,1.0,1.0,78,0.00,,---,0.04,VWS V14.01,2013-02-26 00:10:00,
2013-02-25 18:15:00,28.1,22.1,30.15,WSW,257,0.0,1.0,78,0.00,,---,0.04,VWS V14.01,2013-02-26 00:15:00,
2013-02-25 18:20:00,27.9,22.2,30.15,WSW,257,0.0,2.0,79,0.00,,---,0.04,VWS V14.01,2013-02-26 00:20:00,
2013-02-25 18:25:00,27.6,21.6,30.15,WSW,257,0.0,2.0,78,0.00,,---,0.04,VWS V14.01,2013-02-26 00:25:00,
2013-02-25 18:30:00,27.5,22.1,30.15,WSW,257,0.0,2.0,80,0.00,,---,0.04,VWS V14.01,2013-02-26 00:30:00,
2013-02-25 18:35:00,27.0,21.1,30.16,WSW,257,0.0,1.0,78,0.00,,---,0.04,VWS V14.01,2013-02-26 00:35:00,
2013-02-25 18:40:00,26.5,20.9,30.16,South,191,0.0,2.0,79,0.00,,---,0.04,VWS V14.01,2013-02-26 00:40:00,
2013-02-25 18:45:00,26.3,21.3,30.16,South,188,0.0,2.0,81,0.00,,---,0.04,VWS V14.01,2013-02-26 00:45:00,
2013-02-25 18:50:00,26.2,20.9,30.16,SSW,211,0.0,2.0,80,0.00,,---,0.04,VWS V14.01,2013-02-26 00:50:00,
2013-02-25 18:55:00,25.9,20.9,30.16,South,191,0.0,2.0,81,0.00,,---,0.04,VWS V14.01,2013-02-26 00:55:00,
2013-02-25 19:00:00,25.7,20.7,30.16,South,191,0.0,2.0,81,0.00,,---,0.04,VWS V14.01,2013-02-26 01:00:00,
2013-02-25 19:05:00,25.4,20.7,30.16,South,191,0.0,0.0,82,0.00,,---,0.04,VWS V14.01,2013-02-26 01:05:00,
2013-02-25 19:10:00,25.3,20.6,30.16,South,191,0.0,1.0,82,0.00,,---,0.04,VWS V14.01,2013-02-26 01:10:00,
2013-02-25 19:15:00,25.1,20.7,30.16,South,184,0.0,1.0,83,0.00,,---,0.04,VWS V14.01,2013-02-26 01:15:00,
2013-02-25 19:20:00,24.9,20.5,30.16,South,180,0.0,1.0,83,0.00,,---,0.04,VWS V14.01,2013-02-26 01:20:00,
2013-02-25 19:25:00,24.6,20.2,30.16,South,180,0.0,1.0,83,0.00,,---,0.04,VWS V14.01,2013-02-26 01:25:00,
2013-02-25 19:30:00,24.4,20.3,30.16,South,180,0.0,1.0,84,0.00,,---,0.04,VWS V14.01,2013-02-26 01:30:00,
2013-02-25 19:35:00,24.2,20.4,30.16,South,180,0.0,0.0,85,0.00,,---,0.04,VWS V14.01,2013-02-26 01:35:00,
2013-02-25 19:40:00,24.1,20.2,30.16,South,180,0.0,0.0,85,0.00,,---,0.04,VWS V14.01,2013-02-26 01:40:00,
2013-02-25 19:45:00,23.9,20.1,30.16,South,180,0.0,0.0,85,0.00,,---,0.04,VWS V14.01,2013-02-26 01:45:00,
2013-02-25 19:50:00,23.7,19.9,30.16,South,180,0.0,0.0,85,0.00,,---,0.04,VWS V14.01,2013-02-26 01:50:00,
2013-02-25 19:55:00,23.4,19.6,30.16,South,180,0.0,0.0,85,0.00,,---,0.04,VWS V14.01,2013-02-26 01:55:00,
2013-02-25 20:00:00,23.1,19.3,30.15,South,180,0.0,0.0,85,0.00,,---,0.04,VWS V14.01,2013-02-26 02:00:00,
2013-02-25 20:05:00,22.8,19.2,30.14,South,180,0.0,0.0,86,0.00,,---,0.04,VWS V14.01,2013-02-26 02:05:00,
2013-02-25 20:10:00,22.5,19.0,30.14,South,180,0.0,0.0,86,0.00,,---,0.04,VWS V14.01,2013-02-26 02:10:00,
2013-02-25 20:15:00,22.4,19.1,30.14,South,180,0.0,0.0,87,0.00,,---,0.04,VWS V14.01,2013-02-26 02:15:00,
2013-02-25 20:20:00,22.2,18.9,30.14,South,180,0.0,0.0,87,0.00,,---,0.04,VWS V14.01,2013-02-26 02:20:00,
2013-02-25 20:25:00,22.1,18.8,30.14,South,180,0.0,0.0,87,0.00,,---,0.04,VWS V14.01,2013-02-26 02:25:00,
2013-02-25 20:30:00,21.8,18.5,30.15,South,180,0.0,0.0,87,0.00,,---,0.04,VWS V14.01,2013-02-26 02:30:00,
2013-02-25 20:35:00,21.6,18.6,30.15,South,180,0.0,0.0,88,0.00,,---,0.04,VWS V14.01,2013-02-26 02:35:00,
2013-02-25 20:40:00,21.5,18.5,30.15,South,180,0.0,0.0,88,0.00,,---,0.04,VWS V14.01,2013-02-26 02:40:00,
2013-02-25 20:45:00,21.3,18.3,30.15,South,180,0.0,0.0,88,0.00,,---,0.04,VWS V14.01,2013-02-26 02:45:00,
2013-02-25 20:50:00,21.1,18.1,30.15,South,180,0.0,0.0,88,0.00,,---,0.04,VWS V14.01,2013-02-26 02:50:00,
2013-02-25 20:55:00,20.9,17.9,30.15,South,180,0.0,0.0,88,0.00,,---,0.04,VWS V14.01,2013-02-26 02:55:00,
2013-02-25 21:00:00,20.7,17.7,30.14,South,180,0.0,0.0,88,0.00,,---,0.04,VWS V14.01,2013-02-26 03:00:00,
2013-02-25 21:05:00,20.4,17.4,30.14,South,180,0.0,0.0,88,0.00,,---,0.04,VWS V14.01,2013-02-26 03:05:00,
2013-02-25 21:10:00,20.2,17.5,30.14,South,180,0.0,0.0,89,0.00,,---,0.04,VWS V14.01,2013-02-26 03:10:00,
2013-02-25 21:15:00,19.9,16.9,30.14,South,180,0.0,0.0,88,0.00,,---,0.04,VWS V14.01,2013-02-26 03:15:00,
2013-02-25 21:20:00,19.7,16.7,30.14,South,180,0.0,0.0,88,0.00,,---,0.04,VWS V14.01,2013-02-26 03:20:00,
2013-02-25 21:25:00,19.5,16.5,30.13,South,180,0.0,0.0,88,0.00,,---,0.04,VWS V14.01,2013-02-26 03:25:00,
2013-02-25 21:30:00,19.2,16.2,30.14,South,180,0.0,0.0,88,0.00,,---,0.04,VWS V14.01,2013-02-26 03:30:00,
2013-02-25 21:35:00,18.9,16.2,30.14,South,180,0.0,0.0,89,0.00,,---,0.04,VWS V14.01,2013-02-26 03:35:00,
2013-02-25 21:40:00,18.6,15.6,30.13,South,180,0.0,0.0,88,0.00,,---,0.04,VWS V14.01,2013-02-26 03:40:00,
2013-02-25 21:45:00,18.3,15.4,30.14,South,180,0.0,0.0,88,0.00,,---,0.04,VWS V14.01,2013-02-26 03:45:00,
2013-02-25 21:50:00,18.2,15.2,30.13,South,180,0.0,0.0,88,0.00,,---,0.04,VWS V14.01,2013-02-26 03:50:00,
2013-02-25 21:55:00,18.0,15.1,30.13,South,180,0.0,0.0,88,0.00,,---,0.04,VWS V14.01,2013-02-26 03:55:00,
2013-02-25 22:00:00,17.6,14.7,30.13,South,180,0.0,0.0,88,0.00,,---,0.04,VWS V14.01,2013-02-26 04:00:00,
2013-02-25 22:05:00,17.5,14.6,30.13,South,180,0.0,0.0,88,0.00,,---,0.04,VWS V14.01,2013-02-26 04:05:00,
2013-02-25 22:10:00,17.4,14.5,30.12,South,180,0.0,0.0,88,0.00,,---,0.04,VWS V14.01,2013-02-26 04:10:00,
2013-02-25 22:15:00,17.3,14.6,30.12,South,180,0.0,0.0,89,0.00,,---,0.04,VWS V14.01,2013-02-26 04:15:00,
2013-02-25 22:20:00,17.1,14.2,30.12,South,180,0.0,0.0,88,0.00,,---,0.04,VWS V14.01,2013-02-26 04:20:00,
2013-02-25 22:25:00,16.8,13.9,30.12,South,180,0.0,0.0,88,0.00,,---,0.04,VWS V14.01,2013-02-26 04:25:00,
2013-02-25 22:30:00,16.4,13.5,30.12,South,180,0.0,0.0,88,0.00,,---,0.04,VWS V14.01,2013-02-26 04:30:00,
2013-02-25 22:35:00,16.2,13.3,30.12,South,180,0.0,0.0,88,0.00,,---,0.04,VWS V14.01,2013-02-26 04:35:00,
2013-02-25 22:40:00,16.1,13.2,30.12,South,180,0.0,0.0,88,0.00,,---,0.04,VWS V14.01,2013-02-26 04:40:00,
2013-02-25 22:45:00,15.8,12.9,30.12,South,180,0.0,0.0,88,0.00,,---,0.04,VWS V14.01,2013-02-26 04:45:00,
2013-02-25 22:50:00,15.5,12.6,30.12,South,180,0.0,0.0,88,0.00,,---,0.04,VWS V14.01,2013-02-26 04:50:00,
2013-02-25 22:55:00,15.4,12.5,30.12,South,180,0.0,0.0,88,0.00,,---,0.04,VWS V14.01,2013-02-26 04:55:00,
2013-02-25 23:00:00,15.2,12.3,30.12,South,180,0.0,0.0,88,0.00,,---,0.04,VWS V14.01,2013-02-26 05:00:00,
2013-02-25 23:05:00,14.9,11.7,30.12,South,180,0.0,0.0,87,0.00,,---,0.04,VWS V14.01,2013-02-26 05:05:00,
2013-02-25 23:10:00,14.7,11.8,30.11,South,180,0.0,0.0,88,0.00,,---,0.04,VWS V14.01,2013-02-26 05:10:00,
2013-02-25 23:15:00,14.7,11.8,30.11,South,180,0.0,0.0,88,0.00,,---,0.04,VWS V14.01,2013-02-26 05:15:00,
2013-02-25 23:20:00,14.7,11.8,30.11,South,180,0.0,0.0,88,0.00,,---,0.04,VWS V14.01,2013-02-26 05:20:00,
2013-02-25 23:25:00,14.6,11.7,30.11,South,180,0.0,0.0,88,0.00,,---,0.04,VWS V14.01,2013-02-26 05:25:00,
2013-02-25 23:30:00,14.3,11.4,30.12,South,180,0.0,0.0,88,0.00,,---,0.04,VWS V14.01,2013-02-26 05:30:00,
2013-02-25 23:35:00,14.2,11.3,30.12,South,180,0.0,0.0,88,0.00,,---,0.04,VWS V14.01,2013-02-26 05:35:00,
2013-02-25 23:40:00,14.0,11.1,30.13,South,180,0.0,0.0,88,0.00,,---,0.04,VWS V14.01,2013-02-26 05:40:00,
2013-02-25 23:45:00,13.9,11.0,30.13,South,180,0.0,0.0,88,0.00,,---,0.04,VWS V14.01,2013-02-26 05:45:00,
2013-02-25 23:50:00,13.6,10.7,30.13,South,180,0.0,0.0,88,0.00,,---,0.04,VWS V14.01,2013-02-26 05:50:00,
2013-02-25 23:55:00,13.3,10.4,30.13,South,180,0.0,0.0,88,0.00,,---,0.04,VWS V14.01,2013-02-26 05:55:00,